Location: LDNL
(36.4545°S, 141.6685°E)
Time: 20:50:23
(UTC+11:00)

Courier 1B Rocket - Pass Details

Date: 08 February 2023
Orbit: 920 x 1202 km, 28.2° (Epoch: 26 March)

Event Time Altitude Azimuth Distance (km) Brightness Sun altitude
Rises 03:02:01 0° 321° (NW) 3,845 - -35.4°
Reaches altitude 10° 03:05:17 10° 334° (NNW) 2,942 - -35.1°
Maximum altitude 03:10:48 23° 24° (NNE) 2,185 - -34.7°
Exits shadow 03:14:55 15° 64° (ENE) 2,697 7.3 -34.3°
Drops below altitude 10° 03:16:34 10° 73° (ENE) 3,090 7.7 -34.2°
Sets 03:20:06 0° 86° (E) 4,084 8.5 -33.9°
